This demonstration page uses our WeatherBlox Daily Observations layout. Learn more.

Left ArrowRight Arrow

Hourly Observations for November 9, 2015

Temp ( °F °C ) Dew Point ( °F °C ) Humidity (%) Winds ( mph kmh ) Pressure ( in mb ) Visibility ( mi km ) Precip ( " mm )
12:53 am 00:53 Cloudy with Light Rain 48 8.9 45 7.2 89 89 ENE 12 19 30.19 1022 6 10 0.08 2.03
1:53 am 01:53 Cloudy with Light Rain 48 8.9 45 7.2 89 89 ENE 12 19 30.18 1022 6 10 0.05 1.27
2:53 am 02:53 Cloudy with Light Rain 47 8.3 45 7.2 93 93 NE 13 20 30.16 1021 6 10 0.03 0.76
3:53 am 03:53 Cloudy with Mist and Fog 47 8.3 44 6.7 90 90 ENE 10 17 30.14 1021 6 10 0.01 0.25
4:53 am 04:53 Cloudy 47 8.3 44 6.7 90 90 ENE 8 13 30.14 1021 7 11 0.00 0.03
5:53 am 05:53 Cloudy 47 8.3 44 6.7 90 90 NE 9 15 30.14 1021 7 11 0.01 0.25
6:53 am 06:53 Cloudy with Mist and Fog 47 8.3 45 7.2 93 93 NE 6 9 30.14 1021 5 8 0.00 0.03
7:53 am 07:53 Cloudy with Light Rain 47 8.3 45 7.2 93 93 NE 10 17 30.16 1021 5 8 0.00 0.03
8:53 am 08:53 Cloudy with Mist and Fog 48 8.9 45 7.2 89 89 NE 9 15 30.16 1021 6 10 0.00 0.03
9:50 am 09:50 Cloudy with Mist and Fog 48 9 46 8 94 94 NE 12 19 30.18 1022 2 3 0.00 0.00
9:53 am 09:53 Cloudy with Mist and Fog 49 9.4 46 7.8 90 90 ENE 9 15 30.16 1021 2 3 0.00 0.00
10:15 am 10:15 Cloudy with Mist and Fog 49 9.4 46 7.8 90 90 ENE 8 13 30.18 1022 3 4 0.00 0.00
10:22 am 10:22 Cloudy with Mist and Fog 49 9.4 46 7.8 90 90 ENE 12 19 30.18 1022 5 8 0.00 0.00
10:53 am 10:53 Cloudy with Light Rain 49 9.4 47 8.3 93 93 NE 8 13 30.16 1021 8 13 0.00 0.03
11:53 am 11:53 Cloudy 50 10 47 8.3 89 89 NE 8 13 30.14 1021 7 11 0.01 0.25
12:10 pm 12:10 Cloudy with Light Rain 50 10 46 8 88 88 NE 7 11 30.18 1022 3 4 0.00 0.00
12:19 pm 12:19 Cloudy with Light Rain 50 10 47 8.3 89 89 NE 7 11 30.18 1022 4 6 0.00 0.03
12:53 pm 12:53 Cloudy with Mist and Fog 50 10 48 8.9 93 93 ENE 8 13 30.11 1020 5 8 0.01 0.25
1:53 pm 13:53 Cloudy 51 10.6 48 8.9 89 89 NE 9 15 30.09 1019 10 16 0.00 0.00
2:43 pm 14:43 Cloudy 51 10.6 48 8.9 89 89 NE 6 9 30.12 1020 10 16 0.00 0.00
2:53 pm 14:53 Cloudy 51 10.6 48 8.9 89 89 NE 7 11 30.09 1019 10 16 0.00 0.00
3:42 pm 15:42 Cloudy with Light Rain 52 11 48 9 88 88 NNE 7 11 30.12 1020 6 10 0.00 0.00
3:53 pm 15:53 Cloudy 51 10.6 48 8.9 89 89 NE 6 9 30.09 1019 10 16 0.00 0.03
4:01 pm 16:01 Cloudy 51 10.6 48 8.9 89 89 NE 8 13 30.12 1020 10 16 0.00 0.00
4:53 pm 16:53 Cloudy 51 10.6 48 8.9 89 89 NE 8 13 30.08 1019 10 16 0.00 0.00
5:53 pm 17:53 Cloudy 52 11.1 49 9.4 89 89 NE 7 11 30.08 1019 10 16 0.00 0.00
6:53 pm 18:53 Cloudy 52 11.1 49 9.4 89 89 E 3 6 30.10 1019 10 16 0.00 0.03
7:00 pm 19:00 Cloudy 52 11 48 9 88 88 E 7 11 30.12 1020 10 16 0.00 0.00
7:53 pm 19:53 Cloudy with Light Rain 52 11.1 50 10 93 93 ENE 5 7 30.10 1019 5 8 0.00 0.03
8:53 pm 20:53 Cloudy with Light Rain 52 11.1 50 10 93 93 Calm 30.11 1020 6 10 0.03 0.76
9:53 pm 21:53 Cloudy 53 11.7 51 10.6 93 93 Calm 30.11 1020 10 16 0.00 0.03
10:53 pm 22:53 Cloudy 53 11.7 51 10.6 93 93 Calm 30.11 1020 10 16 0.00 0.00
11:53 pm 23:53 Cloudy 53 11.7 51 10.6 93 93 Calm 30.09 1019 10 16 0.00 0.00

Powered by AerisWeather